Wetbulb
71.78 71.61 69.79 68.98 70.28 71.85 73.24 73.76 74.23 74.31 74.61 74.63 74.40 74.02 73.99 74.04 73.12 72.63 75.59 75.87 77.25 76.07 76.69 76.65 74.37 73.25 73.37 73.94 75.12 75.99 76.98 75.55 75.75 74.87 74.68 75.93 75.32 74.80 74.81 74.87 73.62 72.23 74.70
72.61 70.92 71.08 71.87 73.03 74.68 75.08 74.60 74.03 74.01 73.82 73.95 73.86 74.33 74.26 74.51 74.03 74.18 74.83 74.86 77.21 76.54 76.59 74.67 73.88 74.17 74.02 74.02 74.19 74.70 75.34 75.42 75.75 75.62 74.53 74.28 74.68 73.80 74.51 74.19 74.44 75.27 73.86
72.24 70.53 73.26 74.11 75.08 75.50 74.14 74.95 73.96 73.46 72.96 70.92 70.07 71.36 72.62 74.42 74.21 74.30 74.27 74.32 76.41 76.96 76.00 75.71 75.16 74.87 74.01 73.77 73.19 73.20 73.43 71.87 72.28 72.46 73.01 74.04 72.97 72.76 71.99 71.67 72.99 73.48 73.19
72.81 69.54 74.58 74.76 75.38 73.59 73.91 74.31 73.47 73.11 72.45 70.36 70.25 69.66 69.57 73.19 74.49 73.67 73.17 73.12 73.55 74.41 75.52 75.87 75.45 74.54 73.79 73.79 73.42 73.37 73.04 72.28 71.78 71.76 71.88 71.78 71.40 72.77 71.22 70.77 71.65 71.85 72.65
74.40 72.10 74.39 74.69 75.11 74.54 74.23 73.57 73.14 73.26 70.72 69.99 69.05 69.11 69.35 70.67 71.76 72.52 71.92 71.79 72.74 72.82 73.24 75.20 74.42 73.70 72.88 72.45 71.61 70.97 71.15 70.40 69.88 69.99 70.48 70.70 71.09 70.87 72.90 71.80 69.62 71.46 71.75
74.98 74.49 74.15 74.09 75.23 74.54 74.13 73.44 72.89 72.17 70.40 68.58 67.05 67.91 69.71 70.28 70.60 71.22 70.38 70.73 70.54 69.86 71.36 71.32 72.42 71.47 72.13 71.76 70.78 69.78 69.52 68.79 68.48 68.20 67.97 68.09 69.33 70.28 71.34 72.02 71.22 71.50 70.67
74.88 72.95 73.73 71.06 74.07 74.46 75.05 74.24 73.55 71.11 71.26 68.99 67.90 66.63 67.79 69.94 69.49 69.46 69.67 69.34 68.44 67.80 67.40 69.58 70.09 69.43 70.00 71.78 71.37 70.01 69.04 68.66 68.51 67.75 67.31 67.49 67.21 68.08 69.37 70.77 71.93 71.52 71.08
73.91 73.65 73.46 70.92 73.07 75.36 74.44 74.45 73.81 70.55 69.51 69.73 67.06 63.78 63.25 64.71 64.68 68.64 69.77 68.76 67.88 68.13 67.56 68.56 69.08 67.94 68.41 70.12 71.63 70.32 68.14 68.76 68.13 67.42 66.86 66.45 66.75 66.73 67.68 69.17 70.76 70.62 69.83
74.36 74.81 73.21 70.50 73.24 75.56 75.09 74.50 73.42 71.84 68.39 70.47 67.15 66.74 63.30 62.68 63.72 62.77 65.82 66.98 68.76 68.35 68.28 68.55 68.86 67.47 67.02 67.25 68.85 70.32 68.89 68.67 68.30 67.43 66.40 65.83 65.89 66.15 66.49 67.29 69.17 69.91 70.66
73.94 74.95 74.17 73.56 72.67 74.97 74.72 74.67 74.36 73.20 71.01 69.49 69.11 67.65 67.10 66.61 63.82 62.94 64.19 64.65 67.05 66.98 66.87 67.09 67.41 66.71 66.44 66.91 66.45 68.17 68.85 67.71 67.60 67.16 66.47 65.73 65.69 65.84 65.96 66.22 67.75 69.95 69.91
73.88 74.35 75.04 75.19 74.40 75.01 74.79 74.73 73.33 72.69 72.83 71.15 69.22 68.40 66.92 67.21 65.73 63.10 60.57 62.20 63.94 65.07 65.70 65.22 65.23 65.04 65.57 66.04 66.51 66.81 67.26 67.19 66.25 66.27 65.81 65.60 65.26 65.57 65.74 65.78 66.46 69.27 70.77
72.95 73.08 73.46 74.24 74.08 74.68 75.15 74.22 74.40 73.36 72.02 70.83 69.79 69.03 65.03 64.61 65.19 64.42 62.11 62.40 62.12 63.55 64.18 64.76 63.86 63.96 65.29 65.67 66.56 66.70 66.65 66.46 65.66 65.26 65.12 65.31 64.83 65.29 65.72 65.69 66.02 68.38 70.75
72.12 72.57 72.62 72.87 74.74 74.64 75.69 74.57 74.45 73.28 72.83 71.64 69.14 68.42 66.68 66.07 66.59 66.14 64.15 63.05 61.14 62.25 62.61 63.13 63.72 64.40 64.33 64.07 65.42 65.88 66.31 65.00 64.23 64.02 63.97 64.57 64.58 64.65 64.96 65.45 66.06 67.46 70.40
72.04 72.75 72.47 72.55 74.26 74.43 74.84 74.68 74.21 74.00 73.64 73.23 69.01 68.10 66.88 67.09 67.42 66.56 65.50 63.28 59.91 60.13 61.24 61.05 63.21 63.98 64.18 64.00 64.34 65.87 65.44 64.10 62.94 63.23 63.42 63.03 63.02 63.44 64.81 65.77 65.84 66.71 68.93
70.40 71.26 71.48 73.37 73.66 74.09 73.96 73.53 72.77 72.82 73.61 73.88 69.73 69.71 67.92 68.12 68.08 67.99 67.47 65.14 63.08 58.34 59.73 60.77 61.88 63.89 63.48 63.88 63.52 63.26 63.89 63.91 63.10 62.87 62.30 61.46 61.64 62.67 64.60 65.88 66.71 66.80 67.94
71.94 72.76 72.54 72.52 72.47 72.82 73.14 73.15 72.20 72.62 72.73 72.94 71.31 71.29 69.66 68.96 68.55 68.74 68.19 67.54 65.18 60.40 58.51 60.81 61.27 63.19 62.83 63.43 63.79 62.35 62.31 63.96 63.29 62.92 61.69 60.34 61.30 61.91 64.43 65.75 66.52 66.55 67.04
72.05 71.76 72.11 71.55 71.29 71.91 72.40 72.44 72.00 72.64 72.33 71.72 71.67 71.76 71.10 70.20 69.17 68.96 68.60 67.76 64.30 61.38 59.38 59.60 61.99 62.55 61.38 62.68 62.24 61.45 62.70 63.30 63.69 62.48 61.45 60.84 61.53 61.80 63.74 64.25 64.93 65.62 66.38
72.47 72.13 72.19 71.68 71.87 72.28 73.86 74.30 73.80 74.13 72.51 72.22 72.86 71.82 71.39 70.95 70.05 69.80 68.64 65.75 63.26 61.38 59.86 57.80 60.57 61.22 60.28 62.74 62.31 60.46 62.04 62.15 62.43 62.61 61.32 61.41 61.18 61.37 62.37 62.32 62.15 61.82 61.92
72.66 72.41 73.33 73.98 74.92 75.03 73.99 73.66 73.48 73.72 73.81 73.58 72.97 72.19 70.90 70.59 69.44 68.62 67.51 65.00 61.95 60.30 59.92 59.68 59.74 60.59 60.97 62.04 60.94 60.88 61.11 60.99 59.93 62.19 62.56 61.77 61.39 61.12 61.22 61.46 60.43 59.59 58.28
73.80 73.47 73.34 74.00 73.46 73.37 73.67 73.76 73.55 73.62 73.22 73.12 73.29 72.89 72.71 70.96 69.37 68.49 67.27 64.40 60.31 59.24 59.21 58.89 58.91 59.28 59.95 60.78 61.27 59.49 59.02 59.93 59.07 60.99 61.72 61.30 61.58 61.37 61.33 61.25 60.98 60.11 58.83
71.97 71.74 71.99 72.57 72.83 73.01 73.07 73.68 72.19 72.61 72.04 71.95 72.01 72.37 72.88 72.11 69.47 68.64 67.25 64.29 59.03 57.81 58.16 57.87 57.38 57.96 59.18 58.53 58.52 59.60 59.01 59.75 58.50 58.48 59.32 59.57 61.54 61.63 60.90 60.45 60.30 60.80 59.31
71.21 71.90 71.85 71.72 71.89 72.67 66.70 65.45 67.38 69.93 70.21 70.40 70.46 70.68 70.41 70.44 68.53 66.23 65.13 63.61 61.97 58.70 57.84 57.58 56.99 57.67 58.59 59.80 59.79 58.20 57.58 56.68 55.93 59.41 59.28 57.80 59.46 59.61 60.22 60.50 60.58 60.10 58.91
71.32 70.79 70.44 71.26 70.49 63.07 60.19 61.22 63.79 68.42 69.94 71.01 70.75 68.87 68.33 67.70 67.27 65.79 63.43 62.81 62.01 60.71 60.41 59.92 57.94 57.86 58.07 60.20 59.74 57.68 57.38 57.00 57.96 58.10 58.61 57.30 58.31 58.01 59.99 59.75 59.38 59.66 58.76
69.63 69.34 69.14 68.08 63.74 60.71 58.52 58.61 61.56 70.57 70.67 69.54 68.17 67.21 66.78 64.89 64.44 64.76 63.37 62.04 62.30 60.25 60.86 60.18 60.69 60.02 61.00 61.09 61.99 60.51 58.94 58.66 58.21 57.64 59.25 56.36 57.82 57.14 60.02 59.77 58.60 59.19 58.28
67.94 68.26 66.43 64.67 63.14 59.50 56.19 57.14 64.13 68.76 69.29 69.50 67.61 66.40 63.91 61.83 58.69 59.18 62.52 59.95 60.22 58.13 59.05 58.06 58.31 57.80 57.78 58.12 60.18 60.84 59.53 57.68 56.81 57.06 57.66 58.67 58.00 58.18 59.46 58.54 60.92 58.95 57.53
67.05 66.76 64.88 63.72 60.55 60.73 54.83 54.44 60.59 64.37 64.13 65.80 68.22 65.00 60.89 59.89 56.35 56.58 60.54 60.11 58.19 57.66 58.75 59.93 59.65 59.27 59.57 58.97 58.99 62.23 60.25 58.91 57.55 57.38 57.99 57.82 58.44 58.30 56.80 59.01 59.96 60.73 60.56
MSLP
1015.70 1015.56 1015.31 1015.24 1015.08 1014.97 1015.02 1014.91 1014.92 1015.00 1015.02 1014.83 1014.73 1014.81 1014.80 1014.89 1014.86 1015.32 1015.59 1015.69 1015.63 1015.96 1015.95 1016.23 1016.54 1016.53 1016.77 1016.70 1016.82 1016.43 1016.42 1016.70 1017.22 1017.64 1017.72 1017.82 1018.43 1018.86 1019.36 1019.45 1019.72 1020.04 1020.65
1015.43 1015.41 1015.29 1015.18 1014.99 1014.91 1014.79 1014.73 1014.79 1014.86 1014.72 1014.60 1014.81 1014.71 1014.53 1014.53 1014.45 1014.79 1015.01 1015.10 1015.10 1015.28 1015.87 1015.88 1016.24 1016.59 1016.70 1016.76 1016.72 1016.75 1016.74 1016.87 1016.95 1017.28 1017.62 1017.76 1017.94 1018.61 1019.10 1019.59 1019.58 1019.83 1020.60
1015.27 1015.31 1015.23 1015.17 1014.67 1014.59 1014.46 1014.44 1014.43 1014.32 1014.45 1014.79 1014.78 1014.60 1014.31 1014.05 1013.90 1014.07 1014.27 1014.81 1014.95 1015.06 1015.51 1015.81 1016.01 1016.33 1016.58 1016.73 1016.83 1016.48 1016.46 1016.87 1016.91 1017.14 1017.43 1017.61 1017.90 1018.52 1018.50 1019.80 1019.56 1019.89 1020.29
1015.01 1015.19 1015.05 1014.67 1014.34 1014.43 1014.60 1014.55 1014.52 1014.49 1014.57 1014.67 1014.69 1014.35 1013.98 1013.62 1013.57 1014.00 1014.30 1014.01 1014.80 1014.93 1015.41 1015.65 1016.00 1016.19 1016.41 1016.61 1016.63 1016.67 1016.62 1016.85 1017.37 1017.39 1017.48 1017.60 1017.69 1018.28 1019.05 1019.19 1019.29 1019.60 1020.72
1014.77 1014.92 1014.94 1014.67 1014.53 1014.68 1014.79 1014.71 1014.70 1014.63 1014.68 1014.69 1014.52 1014.38 1014.03 1013.74 1013.73 1013.91 1014.23 1014.32 1014.57 1015.24 1015.52 1015.72 1016.02 1016.24 1016.46 1016.53 1016.53 1016.87 1016.96 1017.20 1017.43 1017.64 1017.79 1017.83 1017.83 1017.72 1018.04 1018.54 1018.73 1019.25 1020.57
1014.61 1014.87 1014.95 1014.88 1014.92 1014.85 1014.80 1014.76 1014.68 1014.77 1014.79 1014.91 1014.71 1014.57 1014.33 1014.23 1014.24 1014.42 1014.78 1014.95 1015.00 1015.03 1015.49 1015.96 1015.98 1016.22 1016.32 1016.29 1016.72 1016.72 1017.11 1017.23 1017.53 1017.82 1018.05 1018.10 1018.03 1017.84 1017.86 1018.19 1018.81 1019.57 1020.25
1014.42 1014.78 1014.90 1015.00 1015.08 1014.91 1014.87 1014.70 1014.76 1014.92 1014.91 1014.88 1014.73 1014.63 1014.76 1014.81 1014.87 1014.92 1014.97 1015.17 1015.39 1015.30 1015.74 1016.07 1016.14 1016.30 1016.43 1016.71 1016.72 1017.00 1017.21 1017.56 1017.82 1018.06 1018.41 1018.44 1018.41 1018.19 1018.09 1018.16 1018.53 1019.24 1019.70
1014.32 1014.56 1014.80 1014.85 1014.84 1014.91 1014.69 1014.65 1014.85 1015.15 1015.10 1015.00 1015.22 1015.39 1015.21 1015.09 1014.89 1015.19 1015.08 1015.52 1015.58 1015.69 1015.79 1016.21 1016.14 1016.18 1016.35 1016.67 1016.48 1016.85 1017.15 1017.46 1018.00 1018.21 1018.53 1018.85 1018.66 1018.43 1018.43 1018.43 1018.48 1018.80 1019.24
1014.26 1014.41 1014.52 1014.78 1014.69 1014.78 1014.73 1014.80 1014.97 1015.18 1015.18 1015.10 1015.30 1015.44 1015.55 1015.42 1015.49 1015.51 1015.66 1015.61 1015.77 1015.99 1015.86 1015.96 1016.02 1016.17 1016.51 1016.46 1016.69 1016.94 1017.18 1017.40 1017.68 1018.18 1018.45 1018.82 1019.01 1018.70 1018.63 1018.84 1018.80 1019.00 1019.52
1014.14 1014.25 1014.38 1014.46 1014.64 1014.69 1014.73 1014.62 1014.74 1014.96 1015.27 1015.25 1015.36 1015.18 1014.96 1015.03 1015.48 1016.00 1016.13 1016.00 1016.10 1015.75 1015.89 1015.98 1016.12 1016.35 1016.47 1016.69 1016.65 1016.73 1016.93 1017.33 1017.65 1018.17 1018.42 1018.69 1018.97 1018.88 1018.92 1019.16 1019.10 1019.18 1019.29
1014.00 1014.04 1014.08 1014.17 1014.45 1014.54 1014.46 1014.49 1014.59 1014.86 1014.95 1015.15 1014.98 1014.91 1015.01 1015.33 1015.68 1015.96 1016.30 1016.37 1016.18 1016.12 1016.13 1016.14 1015.92 1016.15 1016.29 1016.48 1016.52 1016.60 1016.73 1017.24 1017.78 1018.26 1018.48 1018.72 1019.07 1018.99 1018.98 1019.12 1019.14 1019.34 1019.67
1014.09 1013.99 1013.92 1013.97 1013.91 1014.10 1014.19 1014.29 1014.36 1014.50 1014.61 1014.64 1014.50 1014.64 1015.20 1016.09 1016.26 1016.18 1016.07 1015.85 1015.79 1015.46 1015.82 1016.02 1016.02 1016.13 1016.50 1016.52 1016.66 1016.61 1016.95 1017.38 1017.96 1018.38 1018.60 1018.85 1019.25 1019.06 1019.06 1019.15 1019.21 1019.17 1019.38
1014.21 1014.00 1014.08 1013.85 1013.76 1013.76 1013.97 1014.10 1014.00 1014.06 1013.96 1014.09 1014.22 1014.77 1015.24 1015.28 1015.69 1015.56 1015.53 1015.52 1015.26 1015.40 1015.59 1015.93 1015.95 1016.11 1016.36 1016.69 1016.73 1016.87 1017.08 1017.57 1018.14 1018.68 1018.75 1019.03 1019.35 1019.30 1019.16 1019.34 1019.25 1019.06 1019.06
1014.17 1014.11 1014.06 1013.89 1013.71 1013.60 1013.61 1013.54 1013.59 1013.55 1013.48 1013.41 1013.71 1013.97 1014.22 1014.60 1014.81 1014.68 1014.58 1014.69 1014.91 1015.24 1015.55 1015.67 1015.96 1016.06 1016.37 1016.93 1016.83 1016.83 1017.40 1017.83 1018.22 1018.66 1018.82 1019.00 1019.39 1019.34 1019.36 1019.31 1019.34 1019.16 1019.03
1014.08 1013.99 1013.87 1013.84 1013.60 1013.40 1013.28 1013.25 1013.14 1012.96 1012.91 1012.93 1013.30 1013.44 1013.23 1012.04 1013.29 1013.77 1013.78 1013.85 1014.03 1014.68 1015.35 1015.65 1015.89 1016.03 1016.43 1016.64 1016.86 1017.26 1017.62 1017.76 1018.21 1018.57 1018.88 1019.15 1019.27 1019.37 1019.55 1019.35 1019.19 1019.33 1019.10
1013.83 1013.85 1013.72 1013.51 1013.34 1013.22 1013.01 1012.94 1012.77 1012.47 1012.61 1012.38 1012.16 1012.36 1012.34 1012.63 1012.74 1012.97 1013.07 1013.13 1013.40 1014.15 1015.00 1015.66 1015.93 1016.07 1016.49 1016.84 1017.09 1017.59 1017.71 1017.89 1018.24 1018.67 1018.94 1019.20 1019.48 1019.46 1019.57 1019.27 1019.15 1019.15 1019.21
1013.41 1013.54 1013.46 1013.33 1013.06 1012.82 1012.63 1012.54 1012.50 1012.48 1011.97 1011.76 1011.68 1011.54 1011.63 1011.97 1011.86 1012.40 1012.50 1012.58 1013.11 1013.87 1014.72 1015.65 1015.88 1016.09 1016.59 1016.86 1017.10 1017.53 1017.90 1017.92 1018.27 1018.67 1018.97 1019.25 1019.51 1019.57 1019.79 1019.73 1019.40 1019.38 1019.41
1013.09 1013.05 1013.03 1012.98 1012.83 1012.63 1012.33 1012.08 1011.93 1011.81 1011.61 1011.20 1011.02 1010.99 1011.09 1011.29 1011.62 1011.94 1011.89 1012.25 1013.00 1013.74 1014.53 1015.34 1015.70 1015.99 1016.47 1016.90 1017.27 1017.92 1018.11 1018.32 1018.48 1018.66 1019.00 1019.31 1019.53 1019.72 1019.94 1020.13 1019.98 1019.93 1019.90
1012.77 1012.79 1012.63 1012.50 1012.48 1012.36 1012.18 1011.91 1011.70 1011.36 1011.14 1010.95 1010.65 1010.40 1010.32 1010.61 1011.01 1011.29 1011.34 1012.13 1012.93 1013.80 1014.30 1014.70 1015.35 1015.99 1016.48 1017.11 1017.64 1018.02 1018.35 1018.63 1018.86 1018.83 1019.09 1019.32 1019.67 1019.85 1020.09 1020.14 1020.38 1020.44 1020.48
1012.31 1012.35 1012.46 1012.48 1012.34 1012.21 1011.92 1011.56 1011.37 1011.19 1010.95 1010.63 1010.25 1009.99 1009.79 1010.06 1010.52 1010.84 1010.92 1011.80 1012.84 1013.80 1014.38 1014.76 1015.30 1015.96 1016.17 1017.20 1017.49 1017.94 1018.45 1018.68 1019.03 1019.10 1019.11 1019.41 1019.69 1019.94 1020.08 1020.20 1020.33 1020.42 1020.65
1012.24 1012.37 1012.37 1012.40 1012.41 1012.02 1011.66 1011.56 1011.31 1011.03 1010.78 1010.37 1010.01 1009.74 1009.49 1009.53 1010.02 1010.43 1011.03 1011.93 1012.74 1013.49 1014.34 1014.80 1015.38 1016.01 1016.26 1017.00 1017.18 1017.76 1018.26 1018.66 1019.07 1019.15 1019.42 1019.70 1019.83 1020.02 1020.22 1020.45 1020.46 1020.57 1020.82
1012.31 1012.24 1012.34 1012.35 1012.22 1011.95 1011.84 1011.45 1011.43 1011.17 1010.84 1010.53 1009.99 1009.73 1009.79 1009.77 1010.12 1010.68 1010.96 1011.45 1012.11 1013.21 1014.15 1014.73 1015.30 1015.76 1016.19 1016.49 1017.11 1017.54 1018.08 1018.63 1018.87 1018.96 1019.26 1019.67 1019.86 1020.17 1020.25 1020.45 1020.58 1020.74 1020.82
1012.27 1012.38 1012.45 1012.55 1012.47 1012.73 1012.37 1011.83 1011.60 1011.36 1011.02 1010.60 1010.12 1010.08 1010.11 1010.27 1010.44 1010.86 1011.31 1011.83 1012.48 1013.15 1013.15 1013.89 1014.68 1015.41 1015.81 1016.14 1016.67 1017.22 1017.73 1018.15 1018.48 1018.81 1019.12 1019.43 1019.81 1019.96 1020.07 1020.19 1020.47 1020.62 1020.75
1012.19 1012.50 1012.76 1012.94 1013.18 1013.20 1012.59 1011.96 1011.65 1011.44 1011.32 1011.03 1010.81 1010.67 1010.70 1010.89 1010.98 1011.19 1011.71 1012.25 1012.82 1013.40 1013.79 1013.99 1014.29 1014.72 1015.29 1015.89 1016.29 1016.59 1017.20 1017.92 1018.43 1018.71 1018.94 1019.18 1019.48 1019.61 1019.69 1019.93 1020.29 1020.58 1020.68
1012.40 1012.78 1013.20 1013.39 1013.57 1013.74 1013.26 1012.48 1012.17 1011.77 1011.65 1011.41 1011.21 1011.17 1011.32 1011.54 1011.71 1011.72 1011.85 1012.50 1013.15 1013.56 1014.00 1014.12 1014.52 1014.78 1015.27 1015.73 1016.15 1016.90 1017.14 1017.76 1018.23 1018.48 1018.73 1018.89 1019.18 1019.30 1019.56 1019.83 1019.92 1020.31 1020.59
1012.42 1012.92 1013.37 1013.67 1013.87 1013.91 1013.68 1013.21 1012.81 1012.58 1012.22 1011.93 1011.56 1011.65 1011.76 1011.92 1012.13 1012.23 1012.51 1012.92 1013.43 1013.84 1014.22 1014.58 1015.08 1015.10 1015.33 1015.91 1016.27 1016.51 1016.89 1017.27 1017.75 1018.09 1018.20 1018.59 1018.81 1019.11 1019.46 1019.65 1019.82 1020.09 1020.40
Wind_Speed
2 2 3 3 2 2 3 3 3 4 4 5 5 7 7 7 7 3 2 8 10 7 6 5 6 6 7 9 12 14 14 14 12 11 12 13 14 16 16 15 15 11 13
2 3 3 3 2 2 2 2 3 3 3 2 4 6 7 7 8 6 4 5 12 11 8 8 7 6 5 5 5 6 8 12 11 9 9 10 10 11 11 14 17 20 17
2 3 3 3 2 2 4 1 1 0 1 1 2 4 5 8 8 8 6 3 4 12 12 10 9 8 7 6 3 3 2 1 2 1 5 6 6 9 8 9 10 12 9
3 4 3 2 2 3 3 2 2 2 1 1 3 3 4 6 5 4 2 5 2 5 9 11 10 10 10 9 7 8 7 5 4 6 6 6 1 6 16 15 8 4 11
4 3 3 3 2 2 2 1 1 1 1 2 3 3 3 2 2 4 5 4 6 3 3 9 11 10 9 7 5 4 5 4 5 6 7 8 7 3 13 16 11 8 8
5 3 2 3 3 2 1 1 1 2 2 3 2 5 5 3 4 3 3 3 4 5 4 2 3 4 9 9 7 7 7 7 6 6 7 8 7 7 3 16 21 18 14
3 3 3 3 4 1 2 3 2 4 2 2 2 3 3 4 4 4 2 3 2 3 3 2 2 2 2 7 8 8 8 8 8 9 8 10 7 7 9 5 17 19 21
4 4 4 4 1 1 3 3 2 3 2 2 1 1 2 2 2 3 4 1 4 2 3 5 5 5 3 3 8 13 10 8 8 7 9 8 8 8 7 6 10 17 17
4 5 4 4 2 1 2 2 2 0 2 1 2 1 1 2 2 2 6 4 1 3 3 3 4 4 3 3 4 8 11 10 9 9 8 8 8 8 7 5 3 11 14
5 4 4 4 4 2 4 4 3 3 2 3 0 1 2 2 2 2 2 2 1 2 2 2 2 3 4 2 4 8 10 10 10 10 8 6 8 7 7 5 3 8 16
3 3 4 4 5 4 5 5 3 5 3 2 3 3 1 1 2 2 2 2 1 1 0 1 3 2 2 3 2 2 6 10 9 10 8 5 3 5 5 6 3 4 17
2 3 4 4 5 6 7 5 4 4 4 4 4 2 1 4 3 2 1 2 3 2 3 2 3 3 2 2 3 9 12 13 12 10 9 7 4 4 5 3 4 4 16
2 4 3 5 3 4 4 4 5 5 5 4 4 0 4 4 3 3 3 4 5 3 2 2 2 3 3 3 2 8 12 11 11 10 8 7 6 6 4 1 2 5 12
3 3 5 5 5 3 4 4 3 4 5 5 4 5 3 4 5 4 4 4 2 3 1 2 2 3 3 3 3 10 8 11 8 9 7 6 7 7 3 1 4 3 4
3 5 5 4 4 3 4 4 4 6 4 4 3 6 6 8 6 7 6 4 4 3 3 3 2 4 4 4 3 3 4 11 9 8 6 4 7 5 3 1 6 4 3
3 4 4 4 5 5 5 5 5 6 4 4 5 9 8 6 7 7 7 5 4 2 2 1 1 3 4 3 3 4 3 6 7 8 7 2 5 3 3 5 4 6 4
5 5 5 5 6 5 5 5 6 6 8 8 5 9 8 7 8 7 6 3 2 3 3 2 1 3 4 6 4 4 4 3 3 5 6 4 5 3 5 6 7 7 6
4 5 4 5 5 6 6 6 7 6 8 8 7 8 9 6 9 6 5 5 3 5 4 7 3 3 4 5 5 6 5 4 4 5 5 6 5 3 4 6 7 8 9
4 5 5 5 5 5 6 6 6 7 7 8 8 7 7 6 7 5 6 5 4 4 3 5 4 2 3 4 4 4 4 4 3 5 6 7 5 3 3 5 6 6 8
4 3 3 5 4 5 6 7 7 7 7 7 8 7 7 6 6 7 6 7 6 6 4 6 4 3 3 3 3 3 3 2 3 2 5 4 5 5 5 3 3 4 4
3 3 3 4 6 6 6 6 7 8 8 8 7 8 7 6 8 10 6 7 8 6 6 6 4 3 4 4 4 3 3 3 1 2 2 2 3 3 4 6 5 5 2
1 2 3 5 7 6 11 9 6 5 7 7 6 5 5 3 5 6 10 14 14 11 7 6 4 7 6 5 5 3 3 2 2 2 4 3 3 4 4 3 5 6 6
3 4 6 5 7 9 14 11 10 5 6 7 6 4 2 3 6 7 8 11 10 9 12 8 8 7 7 7 6 5 3 3 2 3 3 2 3 4 5 5 8 8 7
5 5 6 6 7 8 13 13 10 5 5 6 6 5 3 3 4 7 7 7 7 5 6 5 7 8 5 8 7 3 6 4 3 2 2 3 3 3 4 4 9 9 7
6 7 5 6 6 9 14 15 9 8 7 6 5 5 3 4 5 8 8 7 6 3 4 5 6 8 7 10 9 5 4 3 2 2 4 2 3 2 2 3 4 9 7
7 7 8 7 7 8 15 15 9 5 6 6 5 5 4 4 7 7 6 6 5 3 4 6 6 8 6 8 10 4 6 5 2 3 4 4 3 3 2 2 4 6 6
Wind_Direction
261 238 240 244 254 267 248 257 260 268 265 256 247 244 242 240 242 234 228 245 233 226 214 212 232 234 239 243 252 245 228 231 233 224 225 224 215 207 210 201 180 196 201
227 290 289 268 260 246 252 245 245 246 235 258 282 260 245 235 245 205 220 225 234 188 188 187 218 236 231 241 260 284 235 235 236 244 239 235 235 221 220 210 196 194 202
303 325 300 281 347 10 356 327 252 301 105 85 286 272 261 238 221 200 194 176 235 170 181 184 191 191 205 206 201 155 124 92 120 101 287 258 228 202 204 226 199 212 202
238 278 300 309 28 23 359 353 14 331 350 15 320 289 249 250 220 179 183 156 173 166 176 178 182 188 200 205 187 185 154 121 83 79 68 56 35 189 177 212 192 171 214
228 254 313 319 16 45 2 355 346 278 340 346 333 342 296 293 196 148 168 154 145 135 125 184 183 190 200 198 181 133 115 132 113 90 85 77 51 47 180 188 197 199 206
213 225 267 292 279 183 165 210 26 23 20 348 351 19 7 28 60 65 121 104 114 144 136 188 187 203 207 204 181 173 165 156 130 108 94 88 75 56 125 192 198 198 190
172 197 237 244 244 35 346 10 347 42 345 354 349 354 41 33 69 102 116 118 234 87 130 230 238 225 240 210 192 177 181 162 140 109 97 95 90 69 65 178 203 193 199
190 203 223 241 252 307 332 326 360 23 312 8 25 92 333 334 13 39 103 128 160 221 210 231 229 228 214 229 195 188 196 177 149 127 108 103 93 85 78 51 210 203 217
225 222 229 256 235 234 288 294 301 140 267 272 96 177 323 260 323 48 45 26 355 224 235 254 250 233 222 239 251 212 210 195 179 151 133 122 116 99 86 72 49 206 193
229 229 227 240 262 242 246 238 202 226 202 252 250 187 195 165 173 19 37 343 260 189 215 195 196 214 216 239 263 247 209 187 171 158 141 130 118 114 111 106 77 170 148
223 233 238 246 240 227 243 243 218 215 202 225 205 236 211 67 68 124 274 266 227 260 349 183 137 151 221 161 134 135 143 163 169 139 136 121 124 116 117 123 120 137 179
303 267 255 248 243 231 229 241 270 237 229 219 242 240 69 28 348 267 224 277 237 210 196 179 163 149 122 117 128 112 117 127 126 134 139 146 133 115 99 111 147 165 188
278 287 292 328 298 252 244 252 258 250 231 211 210 102 145 188 209 200 168 240 243 215 215 235 169 134 137 127 107 132 131 131 132 135 134 117 105 92 71 58 163 190 190
254 298 299 293 286 270 228 225 250 260 252 237 205 192 182 185 214 201 189 200 251 221 210 258 142 160 141 122 175 127 134 134 140 126 118 105 80 74 39 26 211 244 214
259 269 263 280 307 268 240 242 243 253 239 255 239 182 181 214 201 219 215 187 193 203 198 206 138 173 145 141 168 115 131 141 144 127 105 79 76 58 359 16 192 193 181
240 267 258 261 285 287 266 262 269 271 275 250 213 221 199 204 209 225 224 212 191 167 116 120 179 136 149 139 111 121 131 164 132 118 113 93 88 69 58 65 111 146 157
242 256 257 270 266 270 276 277 284 291 272 272 254 237 220 194 213 217 218 190 119 138 121 126 140 155 126 145 110 125 142 124 141 133 124 124 100 100 79 61 71 74 77
241 246 258 263 273 273 271 272 285 285 279 285 267 234 228 202 227 206 197 165 141 146 129 154 164 145 109 149 115 122 141 149 152 165 138 126 107 98 93 84 81 69 62
242 253 248 253 265 278 289 285 283 287 283 288 286 274 250 200 217 177 183 145 135 136 141 156 148 120 109 135 101 89 123 124 144 166 144 131 129 136 152 133 100 85 65
228 234 275 293 299 291 284 286 291 302 303 291 288 280 255 204 206 185 181 137 127 136 137 143 125 125 127 126 116 136 146 114 137 130 109 122 136 150 183 161 177 102 72
191 270 313 316 303 302 299 315 305 301 306 303 304 300 270 227 191 176 162 141 134 136 145 143 131 132 140 157 174 134 132 140 161 139 134 151 145 157 175 194 211 196 181
280 357 350 346 329 331 335 318 330 323 325 309 314 323 336 350 162 167 144 148 154 150 152 143 155 169 166 159 162 133 123 143 192 162 163 182 171 183 190 198 200 196 200
108 54 27 3 9 18 357 7 356 330 322 329 334 325 358 48 120 149 141 137 149 161 165 148 164 171 175 169 159 137 158 147 180 159 157 192 178 212 201 202 198 195 194
83 66 46 34 56 24 15 18 351 7 10 10 7 357 17 72 115 132 127 111 135 137 155 173 178 166 179 164 181 171 154 128 94 117 161 186 159 204 189 207 202 199 199
95 83 71 62 59 34 15 26 20 25 13 10 24 24 61 89 87 107 124 111 118 98 78 153 130 140 149 153 153 147 156 134 201 190 181 189 161 142 162 189 197 197 197
111 108 94 80 62 56 28 25 22 30 22 0 5 30 72 123 115 116 115 123 109 99 124 131 116 101 137 148 159 191 162 173 171 198 183 172 146 145 164 172 175 184 195